La Junta, CO

6:25 AM MDT on August 21, 2017 (GMT -0600)
La Junta Municipal

Weather History for KLHX - March, 2013

Change the Weather History Date:

Friday, March 1, 2013

  Actual Average Record
Temperature  
Mean Temperature 39 °F 39 °F  
Max Temperature 54 °F 54 °F 80 °F (2008)
Min Temperature 23 °F 25 °F -6 °F (1960)
Degree Days  
Heating Degree Days 26 26  
Month to date heating degree days 26 26  
Since 1 July heating degree days 3802 4127  
Cooling Degree Days 0 0  
Month to date cooling degree days 0 0  
Year to date cooling degree days 0 0  
Moisture  
Dew Point 13 °F    
Average Humidity 40    
Maximum Humidity 60    
Minimum Humidity 19    
Precipitation  
Precipitation 0.00 in 0.02 in 1.20 in (1993)
Month to date precipitation 0.00  
Year to date precipitation 0.11  
Sea Level Pressure  
Sea Level Pressure 30.28 in    
Wind  
Wind Speed 10 mph (NW)    
Max Wind Speed 22 mph    
Max Gust Speed 29 mph    
Visibility 10 miles    
Events      
T = Trace of Precipitation, MM = Missing Value Source: NWS Daily Summary

Daily Weather History Graph

Daily Weather History Graph

Search for Another Location

Airport or City:

Trip Planner

Search our weather history database for the weather conditions in past years. The results will help you decide how hot, cold, wet, or windy it might be!

Date:

Astronomy

Mar. 01, 2013 Rise Set
Actual Time 6:25 AM MST 5:47 PM MST
Civil Twilight 5:58 AM MST 6:14 PM MST
Nautical Twilight 5:28 AM MST 6:44 PM MST
Astronomical Twilight 4:57 AM MST 7:15 PM MST
Moon 10:18 PM MST (3/1) 8:18 AM MST (3/1)
Length of Visible Light 12h 15m
Length of Day
11h 22m
Waning Gibbous, 83% of the Moon is Illuminated
Mar 1
Waning Gibbous
Mar 4
Last Quarter
Mar 11
New
Mar 19
First Quarter
Mar 27
Full

Hourly Weather History & Observations

Time (MST) Temp. Windchill Dew Point Humidity Pressure Visibility Wind Dir Wind Speed Gust Speed Precip Events Conditions
12:53 AM 30.9 °F 21.7 °F 8.1 °F 38% 30.23 in 10.0 mi West 11.5 mph - N/A   Mostly Cloudy
1:53 AM 28.0 °F 17.5 °F 8.1 °F 43% 30.23 in 10.0 mi West 12.7 mph - N/A   Overcast
2:53 AM 28.0 °F 19.3 °F 8.1 °F 43% 30.24 in 10.0 mi NW 9.2 mph - N/A   Overcast
3:53 AM 30.9 °F 27.5 °F 9.0 °F 40% 30.25 in 10.0 mi NNW 3.5 mph - N/A   Mostly Cloudy
6:53 AM 27.0 °F 18.7 °F 12.9 °F 56% 30.33 in 10.0 mi WNW 8.1 mph - N/A   Clear
7:53 AM 30.0 °F 20.0 °F 12.0 °F 47% 30.35 in 10.0 mi West 12.7 mph - N/A   Clear
8:53 AM 37.0 °F 28.5 °F 15.1 °F 41% 30.34 in 10.0 mi West 13.8 mph - N/A   Clear
11:53 AM 51.1 °F - 10.9 °F 20% 30.28 in 10.0 mi North 19.6 mph 24.2 mph N/A   Overcast
12:53 PM 51.1 °F - 12.0 °F 21% 30.26 in 10.0 mi NNE 10.4 mph 24.2 mph N/A   Mostly Cloudy
1:53 PM 52.0 °F - 12.0 °F 20% 30.24 in 10.0 mi North 15.0 mph 24.2 mph N/A   Partly Cloudy
2:53 PM 51.1 °F - 12.0 °F 21% 30.24 in 10.0 mi North 15.0 mph - N/A   Overcast
3:53 PM 52.0 °F - 14.0 °F 22% 30.22 in 10.0 mi NNE 10.4 mph - N/A   Overcast
4:53 PM 50.0 °F - 15.1 °F 25% 30.26 in 10.0 mi North 13.8 mph - N/A   Overcast
5:53 PM 46.9 °F - 15.1 °F 28% 30.29 in 10.0 mi NNW 11.5 mph - N/A   Overcast
6:53 PM 37.9 °F 32.1 °F 14.0 °F 38% 30.34 in 10.0 mi North 8.1 mph - N/A   Partly Cloudy
7:53 PM 39.9 °F - 16.0 °F 38% 30.35 in 10.0 mi Calm Calm - N/A   Overcast
8:53 PM 39.9 °F 37.8 °F 18.0 °F 41% 30.34 in 10.0 mi NNW 3.5 mph - N/A   Mostly Cloudy
9:53 PM 39.0 °F 34.0 °F 16.0 °F 39% 30.32 in 10.0 mi WSW 6.9 mph - N/A   Overcast
10:53 PM 37.9 °F 31.5 °F 15.1 °F 39% 30.30 in 10.0 mi WSW 9.2 mph - N/A   Overcast
11:53 PM 36.0 °F 28.5 °F 15.1 °F 43% 30.28 in 10.0 mi West 10.4 mph - N/A   Overcast